Portada
METAR-TAF:

METAR-TAF

Aeropuertos :

Abadeh, Irán

latitud: 31-11N, longitud: 052-40E, altitud: 2004 m

Observación

El informe se hizo hace 3 horas y 2 minutos, a las 20:00 UTC
Viento calma
Temperatura 2°C
Humedad 51%
Presión 1021 hPa
Visibilidad 10 km o más
sin nubes por debajo de 1500 m y sin presencia de cumulonimbus.

METAR: OISA 222000Z 00000KT CAVOK 02/M07 Q1020 A3014

Hora: 02:32 (23:02 UTC)


TAF: falta

Observaciones y pronósticos meteorológicos de más de 4000 aeropuertos (mensajes METAR y TAF).

Los puntos amarillos y rojos representan las estaciones disponibles.

Ponga el ratón en el punto deseado para ver el nombre de la estación.

Haga clic para ver las observaciones y los pronósticos meteorológicos.

Para cambiar el mapa : haga clic en los botones verdes con una cruz de color negro para hacer un zoom, en el botón verde con un guión para alejar o en las flechas verdes para mapas adyacentes.


METAR-TAF: